"2010-03-06 00:00:00",1736919,5.215,123.4,12.39,1.324,7.336,101.7898,3.866,5.042,47.56,0,109.9,13.44,4.63,85.4
"2010-03-06 00:00:30",1736920,2.392,85.4,12.36,0.422,4.42,101.7709,3.818,4.89,47.74,0,109.9,13.47,4.58,47.4
"2010-03-06 00:01:00",1736921,4.839,96.2,11.86,1.553,6.572,101.7627,3.797,5.022,48.33,0,109.9,13.44,4.56,58.2
"2010-03-06 00:01:30",1736922,4.959,122.8,14.63,1.247,7.112,101.7627,3.797,5.11,49.15,0,109.9,13.44,4.56,84.8
"2010-03-06 00:02:00",1736923,3.798,122.5,6.908,1.467,8.22,101.7627,3.797,5.1,49.22,0,109.9,13.44,4.56,84.5
"2010-03-06 00:02:30",1736924,4.632,124.9,8.33,1.407,7.141,101.7534,3.774,4.962,48.71,0,109.9,13.44,4.54,86.9
"2010-03-06 00:03:00",1736925,4.194,106.5,6.797,1.277,5.986,101.7319,3.719,4.892,48.21,0,109.9,13.44,4.48,68.5
"2010-03-06 00:03:30",1736926,2.766,116.7,10.8,0.298,3.915,101.7288,3.711,4.821,47.48,0,109.9,13.47,4.48,78.7
"2010-03-06 00:04:00",1736927,3.42,137.5,13.12,1.055,4.603,101.7288,3.711,4.85,47.56,0,109.9,13.44,4.48,99.5
"2010-03-06 00:04:30",1736928,5.321,128.7,9.86,1.247,7.352,101.7288,3.711,4.979,48.51,0,109.9,13.44,4.48,90.7
"2010-03-06 00:05:00",1736929,5.878,119.1,5.814,0.899,8.91,101.7271,3.706,5.024,50.4,0,109.9,13.44,4.47,81.1
"2010-03-06 00:05:30",1736930,4.855,117.4,10.53,1.167,7.751,101.7155,3.677,5.005,51.07,0,109.9,13.44,4.44,79.4
"2010-03-06 00:06:00",1736931,4.372,110.5,18.69,1.103,6.992,101.698,3.632,4.957,50.25,0,109.9,13.44,4.40,72.5
"2010-03-06 00:06:30",1736932,3.076,114.1,12.76,1.157,4.846,101.6949,3.624,4.714,48.5,0,109.9,13.44,4.39,76.1
"2010-03-06 00:07:00",1736933,1.75,138.5,6.415,0.184,3.583,101.6952,3.625,4.695,48.67,0,109.9,13.48,4.39,100.5
"2010-03-06 00:07:30",1736934,3.178,153.2,9.42,1.33,6.084,101.6961,3.627,4.856,49.37,0,109.9,13.45,4.39,115.2
"2010-03-06 00:08:00",1736935,3.693,179.7,11.47,1.346,7.429,101.6969,3.629,4.957,49.48,0,109.9,13.45,4.39,141.7
"2010-03-06 00:08:30",1736936,3.769,162.9,6.692,1.005,8.1,101.6967,3.629,4.88,49.48,0,109.9,13.45,4.39,124.9
"2010-03-06 00:09:00",1736937,2.675,170.2,19.97,1.427,6.906,101.6945,3.623,4.931,49.27,0,109.9,13.45,4.39,132.2
"2010-03-06 00:09:30",1736938,1.628,140.2,48.21,1.105,4.418,101.6911,3.615,4.83,48.46,0,109.9,13.45,4.38,102.2
"2010-03-06 00:10:00",1736939,1.874,102.7,23.2,0.426,3.066,101.6881,3.607,4.638,47.8,0,109.9,13.49,4.37,64.7
"2010-03-06 00:10:30",1736940,2.499,145,27.6,0.641,3.416,101.6822,3.592,4.644,47.38,0,109.9,13.49,4.36,107.0
"2010-03-06 00:11:00",1736941,4.355,195.1,10.56,1.377,5.712,101.6811,3.589,4.733,47.16,0,109.9,13.46,4.35,157.1
"2010-03-06 00:11:30",1736942,4.358,182.5,17.95,1.356,8.18,101.6849,3.599,4.89,47.46,0,109.9,13.46,4.36,144.5
"2010-03-06 00:12:00",1736943,5.578,136.1,12.67,1.133,8.29,101.6886,3.608,4.877,48.49,0,109.9,13.46,4.37,98.1
"2010-03-06 00:12:30",1736944,4.837,142.1,12.55,1.238,7.405,101.6926,3.618,4.875,48.58,0,109.9,13.46,4.38,104.1
"2010-03-06 00:13:00",1736945,4.41,143.3,9.51,1.507,5.289,101.6932,3.62,4.739,47.77,0,109.9,13.46,4.38,105.3
"2010-03-06 00:13:30",1736946,3.121,137,6.332,0.526,3.711,101.6958,3.626,4.622,47.07,0,109.9,13.49,4.39,99.0
"2010-03-06 00:14:00",1736947,3.665,99.6,10.2,1.316,6.119,101.6975,3.631,4.705,46.92,0,109.9,13.46,4.40,61.6
"2010-03-06 00:14:30",1736948,4.107,123.6,29.44,1.176,7.08,101.7079,3.657,4.805,47.07,0,109.9,13.46,4.42,85.6
"2010-03-06 00:15:00",1736949,3.521,160.1,7.485,1.272,6.298,101.7175,3.682,4.733,45.84,0,109.9,13.47,4.45,122.1
"2010-03-06 00:15:30",1736950,4.418,181.6,10.56,1.079,8.03,101.7243,3.699,4.931,45.57,0,109.9,13.46,4.46,143.6
"2010-03-06 00:16:00",1736951,3.561,179.6,13.53,1.342,6.292,101.7291,3.712,4.868,45.57,0,109.9,13.46,4.48,141.6
"2010-03-06 00:16:30",1736952,2.022,133.4,10.13,0.454,3.575,101.7294,3.712,4.708,46.52,0,109.9,13.49,4.48,95.4
"2010-03-06 00:17:00",1736953,2.544,150.2,9.22,0.64,3.295,101.7294,3.712,4.667,46.42,0,109.9,13.49,4.48,112.2
"2010-03-06 00:17:30",1736954,4.408,141.2,12.53,0.956,4.293,101.7294,3.712,4.751,47.03,0,109.9,13.46,4.48,103.2
"2010-03-06 00:18:00",1736955,6.242,145.3,10.9,1.273,7.653,101.7294,3.712,4.929,47.96,0,109.9,13.46,4.48,107.3
"2010-03-06 00:18:30",1736956,5.873,123.3,14.2,0.948,9.12,101.7351,3.727,5.002,47.58,0,109.9,13.46,4.49,85.3
"2010-03-06 00:19:00",1736957,4.562,133.8,13.57,1.553,7.995,101.748,3.76,5.021,47.33,0,109.9,13.45,4.52,95.8
"2010-03-06 00:19:30",1736958,3.873,153.1,15.44,0.893,5.199,101.7602,3.791,4.867,45.96,0,109.9,13.45,4.56,115.1
"2010-03-06 00:20:00",1736959,2.984,176,15.26,0.656,3.931,101.7627,3.797,4.699,45.12,0,109.9,13.49,4.56,138.0
"2010-03-06 00:20:30",1736960,6.051,148.2,6.205,1.526,6.193,101.7633,3.799,4.807,45.32,0,109.9,13.45,4.56,110.2
"2010-03-06 00:21:00",1736961,6.87,151.5,6.067,1.45,8.04,101.7633,3.799,4.959,44.47,0,109.9,13.45,4.56,113.5
"2010-03-06 00:21:30",1736962,6.638,167.2,6.325,1.147,10.04,101.7633,3.799,5.044,44.08,0,109.9,13.45,4.56,129.2
"2010-03-06 00:22:00",1736963,5.808,168.8,14.66,0.756,9.47,101.7633,3.799,5.04,43.93,0,109.9,13.45,4.56,130.8
"2010-03-06 00:22:30",1736964,5.723,185.8,8.31,1.259,6.984,101.7633,3.799,4.893,44.22,0,109.9,13.45,4.56,147.8
"2010-03-06 00:23:00",1736965,4.212,162.4,12.15,0.775,4.041,101.7633,3.799,4.734,44.14,0,109.9,13.46,4.56,124.4
"2010-03-06 00:23:30",1736966,5.014,161.8,5.42,0.952,5.048,101.7644,3.802,4.897,45.1,0,109.9,13.46,4.57,123.8
"2010-03-06 00:24:00",1736967,6.031,153.4,8.66,1.416,6.795,101.765,3.803,4.872,45.62,0,109.9,13.46,4.57,115.4
"2010-03-06 00:24:30",1736968,7.536,155.9,6.162,0.918,9.22,101.7667,3.808,5.094,46.79,0,109.9,13.46,4.57,117.9
"2010-03-06 00:25:00",1736969,7.98,160,15.84,1.003,9.72,101.7639,3.8,5.079,47.17,0,109.9,13.46,4.57,122.0
"2010-03-06 00:25:30",1736970,6.737,176.7,13,1.246,9.06,101.7633,3.799,5.084,46.07,0,109.9,13.46,4.56,138.7
"2010-03-06 00:26:00",1736971,5.914,164.2,7.662,1.284,7.971,101.763,3.798,4.908,46.58,0,109.9,13.46,4.56,126.2
"2010-03-06 00:26:30",1736972,2.712,184.1,19.75,1.085,5.791,101.75,3.765,4.872,44.94,0,109.9,13.46,4.53,146.1
"2010-03-06 00:27:00",1736973,2.461,220.5,36.51,0.85,5.079,101.7359,3.729,4.713,43.67,0,109.9,13.46,4.49,182.5
"2010-03-06 00:27:30",1736974,4.07,247.3,15.81,1.678,7.112,101.7322,3.72,4.886,43.45,0,109.9,13.46,4.48,209.3
"2010-03-06 00:28:00",1736975,4.72,237.6,18.26,1.235,8.11,101.73,3.714,4.947,43.03,0,109.9,13.46,4.48,199.6
"2010-03-06 00:28:30",1736976,4.462,169.1,25.58,1.223,8.69,101.7297,3.713,4.943,42.69,0,109.9,13.47,4.48,131.1
"2010-03-06 00:29:00",1736977,2.466,176.7,68.35,1.149,6.906,101.7294,3.712,4.873,42.79,0,109.9,13.47,4.48,138.7
"2010-03-06 00:29:30",1736978,3.168,198.1,24.01,1.384,6.098,101.7294,3.712,4.846,43.02,0,109.9,13.47,4.48,160.1
"2010-03-06 00:30:00",1736979,0.849,219.5,45.43,0.58,3.886,101.7294,3.712,4.699,41.78,0,109.9,13.5,4.48,181.5
"2010-03-06 00:30:30",1736980,1.097,190.8,28.25,0.71,3.695,101.7294,3.712,4.71,42.13,0,109.9,13.5,4.48,152.8
"2010-03-06 00:31:00",1736981,3.087,316.2,54.65,1.328,7.749,101.7294,3.712,4.946,42.76,0,109.9,13.47,4.48,278.2
"2010-03-06 00:31:30",1736982,3.804,170.9,13.53,0.991,7.726,101.7294,3.712,4.983,43.16,0,109.9,13.47,4.48,132.9
"2010-03-06 00:32:00",1736983,2.066,139.4,10.7,1.05,5.323,101.7294,3.712,4.827,43,0,109.9,13.47,4.48,101.4
"2010-03-06 00:32:30",1736984,4.954,169.6,15.02,1.168,7.876,101.7291,3.712,4.958,43.37,0,109.9,13.47,4.48,131.6
"2010-03-06 00:33:00",1736985,3.902,171.2,13.12,1.468,7.375,101.7235,3.697,4.868,43.27,0,109.9,13.47,4.46,133.2
"2010-03-06 00:33:30",1736986,2.383,156.6,9.79,0.81,4.265,101.7201,3.689,4.691,43.27,0,109.9,13.47,4.45,118.6
"2010-03-06 00:34:00",1736987,2.76,147.7,8.13,1.304,5.204,101.711,3.665,4.811,43.67,0,109.9,13.47,4.43,109.7
"2010-03-06 00:34:30",1736988,4.365,172.6,13.57,1.589,7.416,101.7011,3.64,4.95,43.37,0,109.9,13.47,4.40,134.6
"2010-03-06 00:35:00",1736989,3.105,187.7,7.225,1.188,5.722,101.6981,3.632,4.801,43.07,0,109.9,13.47,4.40,149.7
"2010-03-06 00:35:30",1736990,3.165,195.3,10.59,1.198,6.917,101.6975,3.631,4.962,43.1,0,109.9,13.47,4.40,157.3
"2010-03-06 00:36:00",1736991,3.435,181,17.46,1.226,8.03,101.7009,3.64,4.951,42.9,0,109.8,13.47,4.40,143.0
"2010-03-06 00:36:30",1736992,1.341,193.3,5.793,0.394,4.159,101.7041,3.648,4.69,42.36,0,109.8,13.5,4.41,155.3
"2010-03-06 00:37:00",1736993,3.069,170.9,11.59,0.963,4.58,101.7087,3.659,4.698,42.94,0,109.9,13.47,4.42,132.9
"2010-03-06 00:37:30",1736994,3.927,174.9,6.022,1.238,5.422,101.709,3.66,4.775,43.63,0,109.8,13.47,4.43,136.9
"2010-03-06 00:38:00",1736995,4.147,192.3,17.17,1.469,7.838,101.7162,3.679,4.927,43.19,0,109.8,13.47,4.44,154.3
"2010-03-06 00:38:30",1736996,4.647,154.3,16.59,1.655,8.63,101.7162,3.679,4.904,43.27,0,109.8,13.47,4.44,116.3
"2010-03-06 00:39:00",1736997,4.175,154.6,11.07,1.197,7.117,101.7176,3.682,4.896,43.83,0,109.8,13.47,4.45,116.6
"2010-03-06 00:39:30",1736998,5.366,167.7,10.15,0.759,6.8,101.7219,3.693,4.806,43.41,0,109.8,13.48,4.46,129.7
"2010-03-06 00:40:00",1736999,4.265,159.9,11.78,0.914,5.18,101.7228,3.695,4.925,43.69,0,109.8,13.48,4.46,121.9
"2010-03-06 00:40:30",1737000,4.132,168.9,15.02,1.518,6.156,101.7251,3.701,4.722,44.12,0,109.8,13.48,4.47,130.9
"2010-03-06 00:41:00",1737001,3.729,203.9,9.83,1.365,7.115,101.7225,3.695,4.851,44.17,0,109.8,13.48,4.46,165.9
"2010-03-06 00:41:30",1737002,3.789,185.1,13.52,1.304,6.656,101.7189,3.686,4.88,43.74,0,109.8,13.48,4.45,147.1
"2010-03-06 00:42:00",1737003,5.307,177.6,16.18,1.374,7.672,101.7167,3.68,4.868,44.04,0,109.8,13.48,4.44,139.6
"2010-03-06 00:42:30",1737004,5.657,157.3,8.85,1.109,6.349,101.7147,3.675,4.749,45.96,0,109.8,13.48,4.44,119.3
"2010-03-06 00:43:00",1737005,6.539,147,7.029,1.389,7.042,101.7094,3.661,4.852,47.49,0,109.8,13.48,4.43,109.0
"2010-03-06 00:43:30",1737006,5.208,178.6,7.763,1.127,8.3,101.6986,3.634,4.907,46.97,0,109.8,13.48,4.40,140.6
"2010-03-06 00:44:00",1737007,4.424,181.7,21.62,1.489,6.736,101.6961,3.627,4.827,46.43,0,109.8,13.48,4.39,143.7
"2010-03-06 00:44:30",1737008,5.965,168,7.303,1.233,7.341,101.6961,3.627,4.81,46.84,0,109.8,13.48,4.39,130.0
"2010-03-06 00:45:00",1737009,3.829,136.2,9.8,1.263,5.376,101.6961,3.627,4.772,46.16,0,109.8,13.48,4.39,98.2
"2010-03-06 00:45:30",1737010,5.178,152.3,13.08,0.905,5.902,101.6961,3.627,4.851,46.78,0,109.8,13.48,4.39,114.3
"2010-03-06 00:46:00",1737011,5.222,159.6,7.233,0.973,8.23,101.6961,3.627,4.852,47.01,0,109.8,13.48,4.39,121.6
"2010-03-06 00:46:30",1737012,5.98,163.8,6.27,1.017,8.56,101.6932,3.62,4.924,47.03,0,109.8,13.48,4.38,125.8
"2010-03-06 00:47:00",1737013,6.752,149.6,9.01,1.222,7.498,101.6811,3.589,4.797,46.69,0,109.8,13.48,4.35,111.6
"2010-03-06 00:47:30",1737014,6.508,150.1,6.679,1.798,6.631,101.6655,3.549,4.768,47.65,0,109.8,13.48,4.31,112.1
"2010-03-06 00:48:00",1737015,7.728,153.6,16.09,1.868,6.748,101.6624,3.541,4.813,48.45,0,109.8,13.48,4.31,115.6
"2010-03-06 00:48:30",1737016,6.587,179.4,6.151,1.141,7.614,101.6621,3.541,4.8,47.47,0,109.8,13.48,4.30,141.4
"2010-03-06 00:49:00",1737017,7.237,171.5,10.13,1.225,8.33,101.6621,3.541,4.838,46.65,0,109.8,13.48,4.30,133.5
"2010-03-06 00:49:30",1737018,7.706,166.7,6.083,0.71,9.44,101.6621,3.541,4.831,46.45,0,109.8,13.48,4.30,128.7
"2010-03-06 00:50:00",1737019,6.226,167.8,11.63,1.188,7.702,101.6621,3.541,4.748,44.3,0,109.8,13.48,4.30,129.8
"2010-03-06 00:50:30",1737020,5.276,155.4,5.953,1.076,5.351,101.6619,3.54,4.696,45.57,0,109.8,13.48,4.30,117.4
"2010-03-06 00:51:00",1737021,6.746,161.3,7.101,1.373,6.923,101.6607,3.537,4.714,47.44,0,109.8,13.48,4.30,123.3
"2010-03-06 00:51:30",1737022,8.05,158.5,7.713,1.201,7.394,101.6528,3.517,4.785,48.26,0,109.8,13.48,4.28,120.5
"2010-03-06 00:52:00",1737023,7.524,161.6,7.72,1.268,9.05,101.6398,3.484,4.806,47.74,0,109.8,13.48,4.25,123.6
"2010-03-06 00:52:30",1737024,8.25,159.1,6.582,0.666,9.36,101.6299,3.458,4.844,47.69,0,109.8,13.48,4.22,121.1
"2010-03-06 00:53:00",1737025,6.849,165.7,8.39,1.085,8.25,101.6285,3.455,4.791,47.87,0,109.8,13.48,4.22,127.7
"2010-03-06 00:53:30",1737026,5.299,161.1,13.45,1.435,6.458,101.6282,3.454,4.684,46.69,0,109.8,13.48,4.22,123.1
"2010-03-06 00:54:00",1737027,5.578,162.1,14.08,1.226,4.833,101.6282,3.454,4.509,46.02,0,109.8,13.48,4.22,124.1
"2010-03-06 00:54:30",1737028,5.992,154.5,9.17,1.076,6.785,101.6282,3.454,4.679,46.55,0,109.8,13.48,4.22,116.5
"2010-03-06 00:55:00",1737029,6.753,173.4,7.677,0.686,9.67,101.6282,3.454,4.78,46.01,0,109.8,13.48,4.22,135.4
"2010-03-06 00:55:30",1737030,7.055,177.4,4.179,0.954,9.42,101.6282,3.454,4.788,45.76,0,109.8,13.48,4.22,139.4
"2010-03-06 00:56:00",1737031,5.929,171.6,11.3,0.952,8.65,101.6285,3.455,4.769,45.67,0,109.8,13.49,4.22,133.6
"2010-03-06 00:56:30",1737032,4.923,185.9,10.7,1.879,5.906,101.6305,3.46,4.601,45.21,0,109.8,13.49,4.22,147.9
"2010-03-06 00:57:00",1737033,5.583,182.8,12.61,0.728,6.518,101.6325,3.465,4.614,44.66,0,109.8,13.49,4.23,144.8
"2010-03-06 00:57:30",1737034,3.37,180.4,10.39,1.108,5.715,101.6334,3.467,4.605,44.63,0,109.8,13.49,4.23,142.4
"2010-03-06 00:58:00",1737035,5.637,180.9,11.21,0.975,7.649,101.6354,3.472,4.62,44.65,0,109.8,13.49,4.24,142.9
"2010-03-06 00:58:30",1737036,5.31,194.6,14.21,1.236,8.58,101.6388,3.481,4.782,44.55,0,109.8,13.5,4.25,156.6
"2010-03-06 00:59:00",1737037,5.427,203.3,12.48,0.503,9.26,101.64,3.484,4.731,44.13,0,109.8,13.5,4.25,165.3
"2010-03-06 00:59:30",1737038,4.561,168.5,4.981,0.434,4.57,101.6391,3.482,4.557,43.91,0,109.8,13.5,4.25,130.5
"2010-03-06 01:00:00",1737039,4.376,170.8,7.923,1.143,6.4,101.6423,3.49,4.591,43.74,0,109.8,13.5,4.25,132.8
"2010-03-06 01:00:30",1737040,3.145,174.3,6.709,1.02,5.526,101.6403,3.485,4.614,43.2,0,109.8,13.5,4.25,136.3
"2010-03-06 01:01:00",1737041,4.888,161.7,8.61,1.66,6.708,101.6415,3.488,4.539,42.93,0,109.8,13.5,4.25,123.7
"2010-03-06 01:01:30",1737042,8.13,161.2,8.81,0.969,8.72,101.6449,3.497,4.712,45.76,0,109.7,13.5,4.26,123.2
"2010-03-06 01:02:00",1737043,7.25,174.9,6.298,0.51,9.8,101.6421,3.489,4.769,46.54,0,109.8,13.5,4.25,136.9
"2010-03-06 01:02:30",1737044,9.02,162.1,5.848,1.093,8.92,101.639,3.482,4.785,46.7,0,109.8,13.5,4.25,124.1
"2010-03-06 01:03:00",1737045,8.71,160.1,5.638,1.492,7.733,101.6337,3.468,4.682,48.28,0,109.8,13.5,4.23,122.1
"2010-03-06 01:03:30",1737046,6.724,161.1,13.34,1.368,6.564,101.6286,3.455,4.605,47.19,0,109.8,13.5,4.22,123.1
"2010-03-06 01:04:00",1737047,5.215,176.5,10.76,1.45,6.402,101.6201,3.433,4.491,46.04,0,109.8,13.5,4.20,138.5
"2010-03-06 01:04:30",1737048,5.413,163.6,9.86,1.071,6.864,101.6204,3.434,4.686,45.53,0,109.8,13.5,4.20,125.6
"2010-03-06 01:05:00",1737049,5.088,169,12.42,1.167,8.12,101.621,3.436,4.684,46.16,0,109.8,13.5,4.20,131.0
"2010-03-06 01:05:30",1737050,5.668,150,7.968,1.177,7.061,101.6216,3.437,4.669,46.41,0,109.8,13.5,4.20,112.0
"2010-03-06 01:06:00",1737051,5.389,157,19.93,1.593,7.247,101.6213,3.436,4.692,47.23,0,109.8,13.5,4.20,119.0
"2010-03-06 01:06:30",1737052,5.118,161.1,13.95,1.32,7.292,101.6239,3.443,4.545,46.07,0,109.8,13.5,4.21,123.1
"2010-03-06 01:07:00",1737053,3.822,158.9,10.86,1.386,5.141,101.6219,3.438,4.509,45.64,0,109.8,13.5,4.20,120.9
"2010-03-06 01:07:30",1737054,4.757,162.8,17.21,1.034,7.817,101.6146,3.419,4.681,44.81,0,109.8,13.5,4.18,124.8
"2010-03-06 01:08:00",1737055,5.831,164.5,13.71,1.273,7.806,101.609,3.405,4.616,46.69,0,109.8,13.5,4.17,126.5
"2010-03-06 01:08:30",1737056,5.425,179.1,13.76,1.065,8.08,101.5985,3.378,4.654,46.48,0,109.8,13.5,4.14,141.1
"2010-03-06 01:09:00",1737057,5.264,164,9.96,1.188,7.219,101.5948,3.369,4.61,45.96,0,109.8,13.5,4.13,126.0
"2010-03-06 01:09:30",1737058,5.258,175.8,8.81,1.192,6.808,101.5946,3.368,4.64,45.78,0,109.8,13.5,4.13,137.8
"2010-03-06 01:10:00",1737059,5.235,190.8,8.97,1.193,6.576,101.5948,3.369,4.587,45.35,0,109.8,13.5,4.13,152.8
"2010-03-06 01:10:30",1737060,4.4,178.9,10.41,1.129,6.719,101.5948,3.369,4.563,45.32,0,109.8,13.5,4.13,140.9
"2010-03-06 01:11:00",1737061,6.597,159.8,7.16,1.83,6.539,101.5948,3.369,4.518,45.5,0,109.8,13.5,4.13,121.8
"2010-03-06 01:11:30",1737062,7.191,164.7,9.69,1.315,7.097,101.5948,3.369,4.637,47.37,0,109.8,13.5,4.13,126.7
"2010-03-06 01:12:00",1737063,6.5,181.4,9.02,0.956,8.56,101.5948,3.369,4.624,47.61,0,109.8,13.5,4.13,143.4
"2010-03-06 01:12:30",1737064,6.506,151.7,12.45,1.088,7.929,101.5948,3.369,4.6,47.18,0,109.8,13.51,4.13,113.7
"2010-03-06 01:13:00",1737065,5.601,152.3,15.19,1.174,8.06,101.5946,3.368,4.601,46.66,0,109.8,13.51,4.13,114.3
"2010-03-06 01:13:30",1737066,4.85,181.2,17,1.31,7.544,101.5897,3.356,4.561,45.91,0,109.8,13.51,4.12,143.2
"2010-03-06 01:14:00",1737067,2.807,173.4,18.6,1.208,4.579,101.5838,3.341,4.349,45.48,0,109.8,13.51,4.10,135.4
"2010-03-06 01:14:30",1737068,6.496,182.3,10.22,1.54,7.037,101.5781,3.326,4.477,45.4,0,109.8,13.51,4.09,144.3
"2010-03-06 01:15:00",1737069,7.513,165.3,8.63,1.487,7.952,101.577,3.323,4.609,46.45,0,109.7,13.51,4.09,127.3
"2010-03-06 01:15:30",1737070,8.31,176.5,7.32,1.025,9.39,101.5708,3.307,4.637,50.12,0,109.7,13.51,4.07,138.5
"2010-03-06 01:16:00",1737071,8.93,163.1,5.557,1.255,8.85,101.562,3.285,4.66,49.72,0,109.8,13.51,4.05,125.1
"2010-03-06 01:16:30",1737072,9.53,160.1,4.651,0.939,9,101.5609,3.282,4.613,49.77,0,109.7,13.51,4.05,122.1
"2010-03-06 01:17:00",1737073,6.793,164.1,9.04,1.323,7.255,101.5609,3.282,4.532,48.78,0,109.7,13.51,4.05,126.1
"2010-03-06 01:17:30",1737074,6.01,167.5,6.857,0.969,5.204,101.5609,3.282,4.407,47.93,0,109.8,13.51,4.05,129.5
"2010-03-06 01:18:00",1737075,5.382,165,16.04,1.277,6.148,101.5609,3.282,4.378,47.42,0,109.8,13.51,4.05,127.0
"2010-03-06 01:18:30",1737076,3.562,168.6,9.43,0.998,5.923,101.5601,3.28,4.43,47.38,0,109.8,13.51,4.04,130.6
"2010-03-06 01:19:00",1737077,5.773,193,13.71,0.799,9.47,101.5561,3.27,4.604,47.19,0,109.7,13.51,4.03,155.0
"2010-03-06 01:19:30",1737078,4.908,211.8,9.77,1.131,8.97,101.5485,3.25,4.599,46.04,0,109.8,13.51,4.01,173.8
"2010-03-06 01:20:00",1737079,1.526,186,12.07,0.812,4.506,101.544,3.239,4.292,44.75,0,109.8,13.51,4.00,148.0
"2010-03-06 01:20:30",1737080,4.505,175.5,12.91,2.197,5.464,101.5372,3.222,4.412,44.37,0,109.8,13.51,3.99,137.5
"2010-03-06 01:21:00",1737081,4.617,173.4,18.06,1.323,4.795,101.5369,3.221,4.411,45.65,0,109.8,13.51,3.98,135.4
"2010-03-06 01:21:30",1737082,7.056,166.1,8.01,1.055,7.627,101.5341,3.214,4.395,47.47,0,109.8,13.51,3.98,128.1
"2010-03-06 01:22:00",1737083,7.121,165.9,6.316,1.086,8.72,101.5307,3.205,4.547,50.33,0,109.7,13.51,3.97,127.9
"2010-03-06 01:22:30",1737084,7.754,167.1,5.343,0.953,8.49,101.5333,3.212,4.544,51.16,0,109.8,13.52,3.98,129.1
"2010-03-06 01:23:00",1737085,7.928,164.8,5.714,0.864,8.91,101.5344,3.215,4.591,51.17,0,109.8,13.51,3.98,126.8
"2010-03-06 01:23:30",1737086,8.37,164.8,7.787,0.849,8.75,101.5353,3.217,4.564,50.7,0,109.8,13.51,3.98,126.8
"2010-03-06 01:24:00",1737087,5.986,169.5,6.711,1.444,7.608,101.5373,3.222,4.42,49.03,0,109.7,13.51,3.99,131.5
"2010-03-06 01:24:30",1737088,4.547,152.7,4.914,0.703,4.132,101.5373,3.222,4.247,48.44,0,109.7,13.51,3.99,114.7
"2010-03-06 01:25:00",1737089,6.071,160.4,6.279,1.17,5.13,101.532,3.208,4.332,49.51,0,109.7,13.51,3.97,122.4
"2010-03-06 01:25:30",1737090,6.901,183.4,11.23,1.491,8.12,101.5289,3.201,4.481,48.88,0,109.7,13.51,3.96,145.4
"2010-03-06 01:26:00",1737091,7.283,175.8,10.82,1.021,8.77,101.5216,3.182,4.516,48.09,0,109.7,13.51,3.95,137.8
"2010-03-06 01:26:30",1737092,8.02,157.4,9.82,1.362,7.691,101.5163,3.168,4.436,48.66,0,109.7,13.51,3.93,119.4
"2010-03-06 01:27:00",1737093,7.017,166,10.33,1.232,7.986,101.5146,3.164,4.446,50.46,0,109.7,13.51,3.93,128.0
"2010-03-06 01:27:30",1737094,6.593,157.9,9.35,0.831,6.26,101.5146,3.164,4.349,49.64,0,109.7,13.51,3.93,119.9
"2010-03-06 01:28:00",1737095,7.608,156.6,8.71,1.447,7.332,101.5163,3.168,4.449,50.36,0,109.7,13.51,3.93,118.6
"2010-03-06 01:28:30",1737096,8.08,156.5,8.22,1.224,6.754,101.5194,3.176,4.368,50.12,0,109.7,13.51,3.94,118.5
"2010-03-06 01:29:00",1737097,8.62,167.8,8.07,0.948,8.91,101.52,3.178,4.468,49.83,0,109.7,13.51,3.94,129.8
"2010-03-06 01:29:30",1737098,7.893,169.7,7.794,1.089,8.34,101.5192,3.176,4.394,48.6,0,109.7,13.52,3.94,131.7
"2010-03-06 01:30:00",1737099,7.667,172.7,8.2,0.918,8.62,101.5189,3.175,4.417,48.73,0,109.7,13.52,3.94,134.7
"2010-03-06 01:30:30",1737100,6.922,171.5,6.249,1.279,7.319,101.5152,3.166,4.316,48.27,0,109.7,13.52,3.93,133.5
"2010-03-06 01:31:00",1737101,6.837,178.4,6.257,1.224,7.737,101.5135,3.161,4.334,48.04,0,109.7,13.52,3.92,140.4
"2010-03-06 01:31:30",1737102,5.372,171.1,6.075,0.833,5.986,101.513,3.16,4.298,47.61,0,109.7,13.52,3.92,133.1
"2010-03-06 01:32:00",1737103,5.949,168.2,9.01,1.116,6.244,101.5115,3.156,4.315,47.76,0,109.7,13.52,3.92,130.2
"2010-03-06 01:32:30",1737104,7.083,177.5,10.26,1.141,8.14,101.5141,3.163,4.412,48.06,0,109.7,13.52,3.93,139.5
"2010-03-06 01:33:00",1737105,6.444,170.8,10.33,1.217,8.28,101.5141,3.163,4.334,48.36,0,109.7,13.52,3.93,132.8
"2010-03-06 01:33:30",1737106,6.774,186.8,6.166,1.109,8.03,101.5127,3.159,4.372,48.12,0,109.7,13.52,3.92,148.8
"2010-03-06 01:34:00",1737107,5.767,167,8.39,1.183,6.634,101.5147,3.164,4.368,48.32,0,109.7,13.52,3.93,129.0
"2010-03-06 01:34:30",1737108,5.728,172.5,8.99,1.212,6.909,101.5158,3.167,4.286,48.3,0,109.8,13.52,3.93,134.5
"2010-03-06 01:35:00",1737109,5.032,163.5,8.33,1.081,5.975,101.5159,3.167,4.33,48.34,0,109.7,13.52,3.93,125.5
"2010-03-06 01:35:30",1737110,5.489,182.4,11.11,1.219,7.294,101.5165,3.169,4.311,47.3,0,109.7,13.52,3.93,144.4
"2010-03-06 01:36:00",1737111,6.216,174.8,10.45,1.167,8.06,101.5142,3.163,4.365,47.48,0,109.7,13.53,3.93,136.8
"2010-03-06 01:36:30",1737112,6.688,174.7,10.45,1.033,8.98,101.5139,3.162,4.459,47.62,0,109.7,13.53,3.93,136.7
"2010-03-06 01:37:00",1737113,6.031,176.8,10.02,1.311,7.505,101.5173,3.171,4.334,47.46,0,109.7,13.53,3.93,138.8
"2010-03-06 01:37:30",1737114,5.132,183.1,6.471,1.308,6.697,101.5156,3.167,4.307,46.4,0,109.7,13.53,3.93,145.1
"2010-03-06 01:38:00",1737115,5.417,175.6,6.702,1.241,6.162,101.517,3.17,4.233,46.51,0,109.7,13.53,3.93,137.6
"2010-03-06 01:38:30",1737116,5.12,172.2,6.545,1.29,6.1,101.5187,3.175,4.281,46.49,0,109.7,13.53,3.94,134.2
"2010-03-06 01:39:00",1737117,5.317,172.6,7.01,1.139,7.24,101.5218,3.182,4.403,46.63,0,109.7,13.53,3.95,134.6
"2010-03-06 01:39:30",1737118,5.99,177.6,6.116,1.043,8.67,101.5249,3.19,4.442,46.78,0,109.7,13.52,3.95,139.6
"2010-03-06 01:40:00",1737119,5.834,178.6,6.24,1.041,8.42,101.5269,3.195,4.378,47.16,0,109.7,13.52,3.96,140.6
"2010-03-06 01:40:30",1737120,5.551,177.9,7.003,1.216,7.23,101.5272,3.196,4.407,47.02,0,109.7,13.52,3.96,139.9
"2010-03-06 01:41:00",1737121,5.001,170.3,7.574,1.091,5.809,101.5275,3.197,4.202,46.84,0,109.7,13.52,3.96,132.3
"2010-03-06 01:41:30",1737122,4.44,174.1,7.085,1.175,5.172,101.5275,3.197,4.271,46.92,0,109.7,13.52,3.96,136.1
"2010-03-06 01:42:00",1737123,4.914,171.8,5.296,1.511,7.349,101.5275,3.197,4.395,46.59,0,109.7,13.52,3.96,133.8
"2010-03-06 01:42:30",1737124,5.809,172.4,7.003,0.985,8.24,101.5272,3.196,4.413,46.86,0,109.7,13.52,3.96,134.4
"2010-03-06 01:43:00",1737125,6.274,171.6,5.397,0.762,8.89,101.5275,3.197,4.434,46.95,0,109.7,13.52,3.96,133.6
"2010-03-06 01:43:30",1737126,5.909,169.7,6.609,1.03,7.952,101.5275,3.197,4.351,46.61,0,109.7,13.52,3.96,131.7
"2010-03-06 01:44:00",1737127,5.385,169.5,8.32,1.048,5.959,101.5275,3.197,4.328,46.97,0,109.7,13.53,3.96,131.5
"2010-03-06 01:44:30",1737128,4.646,170.4,4.658,0.838,4.443,101.5275,3.197,4.165,46.94,0,109.7,13.53,3.96,132.4
"2010-03-06 01:45:00",1737129,6.586,183,7.21,1.041,8.39,101.5275,3.197,4.347,46.96,0,109.7,13.53,3.96,145.0
"2010-03-06 01:45:30",1737130,7.073,182.9,7.092,1.247,8.56,101.5275,3.197,4.433,47.9,0,109.7,13.53,3.96,144.9
"2010-03-06 01:46:00",1737131,7.156,186.4,4.324,0.937,9,101.5275,3.197,4.453,48.68,0,109.7,13.53,3.96,148.4
"2010-03-06 01:46:30",1737132,7.402,181.3,7.127,1.15,7.903,101.5275,3.197,4.467,49.19,0,109.7,13.53,3.96,143.3
"2010-03-06 01:47:00",1737133,6.899,182.4,5.747,1.238,7.486,101.5258,3.193,4.361,49.54,0,109.7,13.53,3.96,144.4
"2010-03-06 01:47:30",1737134,6.223,178.7,3.42,0.849,4.198,101.5173,3.171,4.172,49.46,0,109.7,13.53,3.93,140.7
"2010-03-06 01:48:00",1737135,6.923,176.8,5.849,1.018,5.505,101.5105,3.154,4.365,49.86,0,109.7,13.53,3.92,138.8